Time,TemperatureF,DewpointF,PressureIn,WindDirection,WindDirectionDegrees,WindSpeedMPH,WindSpeedGustMPH,Humidity,HourlyPrecipIn,Conditions,Clouds,dailyrainin,SolarRadiationWatts/m^2,SoftwareType,DateUTC
2013-07-01 00:00:00,68.9,64.9,29.96,NNW,338,0.0,13.0,87,0.00,,,0.00,0000,Weather View 32 v70,2013-07-01 04:00:00,
2013-07-01 00:01:00,68.9,64.9,29.96,NNW,338,0.0,13.0,87,0.00,,,0.00,0000,Weather View 32 v70,2013-07-01 04:01:00,
2013-07-01 00:05:00,69.0,65.0,29.97,West,270,0.0,13.0,87,0.00,,,0.00,0000,Weather View 32 v70,2013-07-01 04:05:00,
2013-07-01 00:10:00,69.0,65.0,29.96,WNW,293,0.0,13.0,87,0.00,,,0.00,0000,Weather View 32 v70,2013-07-01 04:10:00,
2013-07-01 00:15:00,69.0,65.0,29.96,WNW,293,0.0,11.0,87,0.00,,,0.00,0008,Weather View 32 v70,2013-07-01 04:15:00,
2013-07-01 00:20:00,69.2,65.1,29.96,WNW,293,0.0,11.0,87,0.00,,,0.00,0000,Weather View 32 v70,2013-07-01 04:20:00,
2013-07-01 00:25:00,69.2,65.1,29.96,West,270,3.0,11.0,87,0.00,,,0.00,0008,Weather View 32 v70,2013-07-01 04:25:00,
2013-07-01 00:30:00,69.0,65.0,29.96,NW,315,0.0,11.0,87,0.00,,,0.00,0000,Weather View 32 v70,2013-07-01 04:30:00,
2013-07-01 00:35:00,68.9,64.9,29.96,SW,225,0.0,11.0,87,0.00,,,0.00,0000,Weather View 32 v70,2013-07-01 04:35:00,
2013-07-01 00:40:00,68.9,64.9,29.96,NW,315,0.0,11.0,87,0.00,,,0.00,0000,Weather View 32 v70,2013-07-01 04:40:00,
2013-07-01 00:45:00,68.9,64.9,29.97,WNW,293,0.0,8.0,87,0.00,,,0.00,0000,Weather View 32 v70,2013-07-01 04:45:00,
2013-07-01 00:55:00,68.9,64.9,29.97,SSW,203,0.0,8.0,87,0.00,,,0.00,0008,Weather View 32 v70,2013-07-01 04:55:00,
2013-07-01 01:00:00,68.9,64.9,29.96,NW,315,0.0,8.0,87,0.00,,,0.00,0000,Weather View 32 v70,2013-07-01 05:00:00,
2013-07-01 01:05:00,68.9,64.9,29.97,WSW,248,0.0,8.0,87,0.00,,,0.00,0000,Weather View 32 v70,2013-07-01 05:05:00,
2013-07-01 01:15:00,69.2,65.1,29.96,SSE,158,2.0,8.0,87,0.00,,,0.00,0000,Weather View 32 v70,2013-07-01 05:15:00,
2013-07-01 01:25:00,69.2,65.1,29.97,WNW,293,0.0,8.0,87,0.00,,,0.00,0000,Weather View 32 v70,2013-07-01 05:25:00,
2013-07-01 01:30:00,69.3,65.2,29.97,NW,315,0.0,8.0,87,0.00,,,0.00,0000,Weather View 32 v70,2013-07-01 05:30:00,
2013-07-01 01:40:00,69.3,65.2,29.97,NNW,338,0.0,8.0,87,0.00,,,0.00,0000,Weather View 32 v70,2013-07-01 05:40:00,
2013-07-01 01:45:00,69.3,65.2,29.96,NW,315,0.0,8.0,87,0.00,,,0.00,0008,Weather View 32 v70,2013-07-01 05:45:00,
2013-07-01 01:50:00,69.3,65.2,29.97,West,270,0.0,8.0,87,0.00,,,0.00,0000,Weather View 32 v70,2013-07-01 05:50:00,
2013-07-01 01:55:00,69.3,65.2,29.97,WNW,293,0.0,8.0,87,0.00,,,0.00,0000,Weather View 32 v70,2013-07-01 05:55:00,
2013-07-01 02:00:00,69.3,65.2,29.97,NW,315,0.0,8.0,87,0.00,,,0.00,0000,Weather View 32 v70,2013-07-01 06:00:00,
2013-07-01 02:10:00,69.4,65.3,29.97,West,270,0.0,8.0,87,0.00,,,0.00,0000,Weather View 32 v70,2013-07-01 06:10:00,
2013-07-01 02:15:00,69.4,65.0,29.96,NW,315,0.0,3.0,86,0.00,,,0.00,0000,Weather View 32 v70,2013-07-01 06:15:00,
2013-07-01 02:25:00,69.2,64.8,29.97,NNW,338,0.0,1.0,86,0.00,,,0.00,0008,Weather View 32 v70,2013-07-01 06:25:00,
2013-07-01 02:30:00,69.2,64.8,29.97,WSW,248,0.0,7.0,86,0.00,,,0.00,0008,Weather View 32 v70,2013-07-01 06:30:00,
2013-07-01 02:35:00,69.0,64.7,29.97,NW,315,0.0,7.0,86,0.00,,,0.00,0000,Weather View 32 v70,2013-07-01 06:35:00,
2013-07-01 02:40:00,69.0,65.0,29.96,NNW,338,0.0,7.0,87,0.00,,,0.00,0000,Weather View 32 v70,2013-07-01 06:40:00,
2013-07-01 02:50:00,69.0,64.7,29.96,NNW,338,0.0,7.0,86,0.00,,,0.00,0000,Weather View 32 v70,2013-07-01 06:50:00,
2013-07-01 03:00:00,68.9,64.5,29.97,WSW,248,0.0,7.0,86,0.00,,,0.00,0008,Weather View 32 v70,2013-07-01 07:00:00,
2013-07-01 03:10:00,68.6,64.2,29.97,North,0,0.0,7.0,86,0.01,,,0.01,0000,Weather View 32 v70,2013-07-01 07:10:00,
2013-07-01 03:15:00,68.6,64.2,29.96,WNW,293,0.0,7.0,86,0.01,,,0.01,0000,Weather View 32 v70,2013-07-01 07:15:00,
2013-07-01 03:20:00,68.6,64.2,29.96,NNW,338,0.0,7.0,86,0.01,,,0.01,0000,Weather View 32 v70,2013-07-01 07:20:00,
2013-07-01 03:30:00,68.5,64.1,29.96,ENE,68,0.0,7.0,86,0.01,,,0.01,0000,Weather View 32 v70,2013-07-01 07:30:00,
2013-07-01 03:35:00,68.5,64.1,29.96,WNW,293,0.0,3.0,86,0.01,,,0.01,0000,Weather View 32 v70,2013-07-01 07:35:00,
2013-07-01 03:40:00,68.5,64.1,29.97,North,0,0.0,3.0,86,0.01,,,0.01,0000,Weather View 32 v70,2013-07-01 07:40:00,
2013-07-01 03:45:00,68.5,64.1,29.97,NW,315,0.0,3.0,86,0.01,,,0.01,0016,Weather View 32 v70,2013-07-01 07:45:00,
2013-07-01 03:50:00,68.5,64.1,29.96,NW,315,0.0,1.0,86,0.01,,,0.01,0000,Weather View 32 v70,2013-07-01 07:50:00,
2013-07-01 03:55:00,68.5,64.1,29.96,NW,315,0.0,1.0,86,0.01,,,0.01,0000,Weather View 32 v70,2013-07-01 07:55:00,
2013-07-01 04:00:00,68.4,64.0,29.97,NW,315,0.0,1.0,86,0.01,,,0.01,0008,Weather View 32 v70,2013-07-01 08:00:00,
2013-07-01 04:05:00,68.5,64.1,29.96,SE,135,2.0,4.0,86,0.01,,,0.01,0000,Weather View 32 v70,2013-07-01 08:05:00,
2013-07-01 04:15:00,68.5,64.4,29.97,West,270,0.0,6.0,87,0.00,,,0.01,0008,Weather View 32 v70,2013-07-01 08:15:00,
2013-07-01 04:25:00,68.6,64.6,29.97,NNW,338,0.0,6.0,87,0.00,,,0.01,0000,Weather View 32 v70,2013-07-01 08:25:00,
2013-07-01 04:30:00,68.6,64.6,29.97,WSW,248,0.0,6.0,87,0.00,,,0.01,0000,Weather View 32 v70,2013-07-01 08:30:00,
2013-07-01 04:40:00,68.6,64.6,29.97,NW,315,0.0,6.0,87,0.00,,,0.01,0000,Weather View 32 v70,2013-07-01 08:40:00,
2013-07-01 04:45:00,68.6,64.2,29.97,NW,315,0.0,6.0,86,0.00,,,0.01,0000,Weather View 32 v70,2013-07-01 08:45:00,
2013-07-01 04:50:00,68.6,64.2,29.97,NW,315,0.0,6.0,86,0.00,,,0.01,0000,Weather View 32 v70,2013-07-01 08:50:00,
2013-07-01 05:00:00,68.7,64.3,29.98,NNW,338,0.0,6.0,86,0.00,,,0.01,0000,Weather View 32 v70,2013-07-01 09:00:00,
2013-07-01 05:10:00,68.7,64.7,29.98,North,0,0.0,5.0,87,0.00,,,0.01,0000,Weather View 32 v70,2013-07-01 09:10:00,
2013-07-01 05:15:00,68.8,64.8,29.99,NW,315,0.0,5.0,87,0.00,,,0.01,0000,Weather View 32 v70,2013-07-01 09:15:00,
2013-07-01 05:25:00,68.8,64.8,29.98,NW,315,0.0,4.0,87,0.00,,,0.01,0008,Weather View 32 v70,2013-07-01 09:25:00,
2013-07-01 05:30:00,68.8,64.8,29.99,West,270,0.0,4.0,87,0.00,,,0.01,0008,Weather View 32 v70,2013-07-01 09:30:00,
2013-07-01 05:35:00,68.8,64.8,29.99,West,270,0.0,4.0,87,0.00,,,0.01,0008,Weather View 32 v70,2013-07-01 09:35:00,
2013-07-01 05:40:00,68.8,64.8,29.98,WNW,293,0.0,4.0,87,0.00,,,0.01,0000,Weather View 32 v70,2013-07-01 09:40:00,
2013-07-01 05:45:00,68.8,64.8,29.98,WNW,293,0.0,4.0,87,0.00,,,0.01,0016,Weather View 32 v70,2013-07-01 09:45:00,
2013-07-01 05:50:00,68.8,64.8,29.98,NW,315,0.0,4.0,87,0.00,,,0.01,0016,Weather View 32 v70,2013-07-01 09:50:00,
2013-07-01 06:00:00,68.8,64.8,29.99,West,270,0.0,4.0,87,0.00,,,0.01,0008,Weather View 32 v70,2013-07-01 10:00:00,
2013-07-01 06:10:00,68.9,64.9,29.99,NW,315,0.0,4.0,87,0.00,,,0.01,0032,Weather View 32 v70,2013-07-01 10:10:00,
2013-07-01 06:15:00,69.0,65.0,29.99,NNW,338,0.0,4.0,87,0.00,,,0.01,0016,Weather View 32 v70,2013-07-01 10:15:00,
2013-07-01 06:20:00,69.0,65.0,29.99,SW,225,0.0,3.0,87,0.00,,,0.01,0008,Weather View 32 v70,2013-07-01 10:20:00,
2013-07-01 06:30:00,68.9,64.5,30.00,NW,315,0.0,3.0,86,0.00,,,0.01,0032,Weather View 32 v70,2013-07-01 10:30:00,
2013-07-01 06:40:00,68.9,64.9,30.00,WNW,293,0.0,4.0,87,0.00,,,0.01,0024,Weather View 32 v70,2013-07-01 10:40:00,
2013-07-01 06:50:00,68.9,64.9,30.00,NW,315,0.0,4.0,87,0.00,,,0.01,0040,Weather View 32 v70,2013-07-01 10:50:00,
2013-07-01 07:00:00,69.0,64.7,29.99,North,0,0.0,4.0,86,0.00,,,0.01,0040,Weather View 32 v70,2013-07-01 11:00:00,
2013-07-01 07:10:00,69.2,64.8,30.00,NNW,338,0.0,4.0,86,0.00,,,0.01,0032,Weather View 32 v70,2013-07-01 11:10:00,
2013-07-01 07:15:00,69.3,64.9,30.00,NE,45,0.0,4.0,86,0.00,,,0.01,0048,Weather View 32 v70,2013-07-01 11:15:00,
2013-07-01 07:20:00,69.3,64.9,30.00,North,0,0.0,4.0,86,0.00,,,0.01,0008,Weather View 32 v70,2013-07-01 11:20:00,
2013-07-01 07:25:00,69.3,64.9,30.00,NW,315,0.0,4.0,86,0.00,,,0.01,0008,Weather View 32 v70,2013-07-01 11:25:00,
2013-07-01 07:30:00,69.3,64.9,30.00,NNW,338,0.0,7.0,86,0.00,,,0.01,0008,Weather View 32 v70,2013-07-01 11:30:00,
2013-07-01 07:35:00,69.3,64.9,30.00,North,0,0.0,7.0,86,0.00,,,0.01,0032,Weather View 32 v70,2013-07-01 11:35:00,
2013-07-01 07:40:00,69.4,65.0,30.00,NNE,23,0.0,7.0,86,0.00,,,0.01,0064,Weather View 32 v70,2013-07-01 11:40:00,
2013-07-01 07:45:00,69.4,65.0,30.00,North,0,0.0,7.0,86,0.00,,,0.01,0064,Weather View 32 v70,2013-07-01 11:45:00,
2013-07-01 07:50:00,69.5,65.1,30.00,North,0,0.0,7.0,86,0.00,,,0.01,0032,Weather View 32 v70,2013-07-01 11:50:00,
2013-07-01 07:55:00,69.5,65.1,30.00,NNW,338,0.0,7.0,86,0.00,,,0.01,0048,Weather View 32 v70,2013-07-01 11:55:00,
2013-07-01 08:00:00,69.6,65.2,30.01,NNW,338,0.0,7.0,86,0.00,,,0.01,0040,Weather View 32 v70,2013-07-01 12:00:00,
2013-07-01 08:05:00,69.6,65.2,30.01,West,270,0.0,7.0,86,0.00,,,0.01,0048,Weather View 32 v70,2013-07-01 12:05:00,
2013-07-01 08:15:00,69.8,65.8,30.01,NNW,338,0.0,7.0,87,0.00,,,0.01,0048,Weather View 32 v70,2013-07-01 12:15:00,
2013-07-01 08:20:00,69.9,65.5,30.01,West,270,0.0,7.0,86,0.00,,,0.01,0024,Weather View 32 v70,2013-07-01 12:20:00,
2013-07-01 08:30:00,69.9,65.9,30.01,NW,315,0.0,7.0,87,0.00,,,0.01,0008,Weather View 32 v70,2013-07-01 12:30:00,
2013-07-01 08:35:00,69.9,65.9,30.00,NNW,338,0.0,5.0,87,0.00,,,0.01,0016,Weather View 32 v70,2013-07-01 12:35:00,
2013-07-01 08:45:00,69.9,65.9,30.01,NW,315,0.0,5.0,87,0.00,,,0.01,0016,Weather View 32 v70,2013-07-01 12:45:00,
2013-07-01 08:55:00,70.1,66.0,30.00,WSW,248,0.0,5.0,87,0.01,,,0.02,0016,Weather View 32 v70,2013-07-01 12:55:00,
2013-07-01 09:05:00,70.2,66.1,30.01,NW,315,0.0,5.0,87,0.01,,,0.02,0032,Weather View 32 v70,2013-07-01 13:05:00,
2013-07-01 09:15:00,70.2,66.1,30.01,NE,45,0.0,5.0,87,0.01,,,0.02,0056,Weather View 32 v70,2013-07-01 13:15:00,
2013-07-01 09:20:00,69.9,65.9,30.02,North,0,0.0,5.0,87,0.02,,,0.03,0064,Weather View 32 v70,2013-07-01 13:20:00,
2013-07-01 09:25:00,69.9,65.9,30.01,SSW,203,0.0,5.0,87,0.02,,,0.03,0248,Weather View 32 v70,2013-07-01 13:25:00,
2013-07-01 09:30:00,70.3,66.2,30.01,WSW,248,0.0,5.0,87,0.02,,,0.03,0184,Weather View 32 v70,2013-07-01 13:30:00,
2013-07-01 09:40:00,70.5,66.4,30.01,NW,315,0.0,5.0,87,0.02,,,0.03,0288,Weather View 32 v70,2013-07-01 13:40:00,
2013-07-01 09:45:00,70.5,66.4,30.01,NNW,338,0.0,5.0,87,0.02,,,0.03,0152,Weather View 32 v70,2013-07-01 13:45:00,
2013-07-01 09:55:00,70.8,66.8,30.02,WNW,293,0.0,7.0,87,0.02,,,0.04,0144,Weather View 32 v70,2013-07-01 13:55:00,
2013-07-01 10:00:00,70.8,66.8,30.01,NW,315,0.0,7.0,87,0.02,,,0.04,0176,Weather View 32 v70,2013-07-01 14:00:00,
2013-07-01 10:05:00,71.0,66.9,30.02,SW,225,0.0,7.0,87,0.02,,,0.04,0568,Weather View 32 v70,2013-07-01 14:05:00,
2013-07-01 10:15:00,71.5,67.4,30.02,NW,315,0.0,7.0,87,0.02,,,0.04,0272,Weather View 32 v70,2013-07-01 14:15:00,
2013-07-01 10:20:00,71.7,67.6,30.02,WNW,293,0.0,7.0,87,0.01,,,0.04,0256,Weather View 32 v70,2013-07-01 14:20:00,
2013-07-01 10:30:00,72.3,68.2,30.02,NW,315,0.0,7.0,87,0.01,,,0.04,0320,Weather View 32 v70,2013-07-01 14:30:00,
2013-07-01 10:35:00,72.3,67.9,30.02,SW,225,3.0,7.0,86,0.01,,,0.04,0248,Weather View 32 v70,2013-07-01 14:35:00,
2013-07-01 10:40:00,72.5,68.1,30.02,North,0,0.0,7.0,86,0.01,,,0.04,0272,Weather View 32 v70,2013-07-01 14:40:00,
2013-07-01 10:50:00,72.8,68.3,30.03,SW,225,5.0,7.0,86,0.00,,,0.04,0240,Weather View 32 v70,2013-07-01 14:50:00,
2013-07-01 10:55:00,72.9,68.4,30.02,WSW,248,3.0,7.0,86,0.00,,,0.04,0272,Weather View 32 v70,2013-07-01 14:55:00,
2013-07-01 11:00:00,73.0,68.5,30.02,SE,135,0.0,7.0,86,0.00,,,0.04,0176,Weather View 32 v70,2013-07-01 15:00:00,
2013-07-01 11:05:00,73.0,68.5,30.02,WSW,248,0.0,7.0,86,0.00,,,0.04,0472,Weather View 32 v70,2013-07-01 15:05:00,
2013-07-01 11:15:00,73.3,68.5,30.03,WSW,248,1.0,7.0,85,0.00,,,0.04,0344,Weather View 32 v70,2013-07-01 15:15:00,
2013-07-01 11:20:00,73.4,68.6,30.02,NW,315,0.0,7.0,85,0.00,,,0.04,0136,Weather View 32 v70,2013-07-01 15:20:00,
2013-07-01 11:25:00,73.1,68.3,30.03,NW,315,0.0,7.0,85,0.00,,,0.04,0120,Weather View 32 v70,2013-07-01 15:25:00,
2013-07-01 11:30:00,73.0,68.2,30.03,West,270,0.0,7.0,85,0.00,,,0.04,0120,Weather View 32 v70,2013-07-01 15:30:00,
2013-07-01 11:40:00,72.8,68.0,30.03,NNW,338,0.0,7.0,85,0.00,,,0.04,0152,Weather View 32 v70,2013-07-01 15:40:00,
2013-07-01 11:50:00,72.8,68.0,30.03,North,0,0.0,6.0,85,0.00,,,0.04,0200,Weather View 32 v70,2013-07-01 15:50:00,
2013-07-01 12:00:00,72.4,67.6,30.03,NNW,338,0.0,6.0,85,0.00,,,0.04,0352,Weather View 32 v70,2013-07-01 16:00:00,
2013-07-01 12:07:00,72.5,67.7,30.03,NNW,338,0.0,6.0,85,0.00,,,0.04,0192,Weather View 32 v70,2013-07-01 16:07:00,
2013-07-01 12:15:00,72.3,67.5,30.04,WNW,293,0.0,5.0,85,0.00,,,0.04,0264,Weather View 32 v70,2013-07-01 16:15:00,
2013-07-01 12:20:00,72.5,67.7,30.04,West,270,0.0,5.0,85,0.00,,,0.04,0328,Weather View 32 v70,2013-07-01 16:20:00,
2013-07-01 12:30:00,72.3,67.5,30.04,NW,315,0.0,16.0,85,0.00,,,0.04,0288,Weather View 32 v70,2013-07-01 16:30:00,
2013-07-01 12:37:00,72.4,67.6,30.04,WSW,248,0.0,16.0,85,0.00,,,0.04,0280,Weather View 32 v70,2013-07-01 16:37:00,
2013-07-01 12:43:00,72.2,67.4,30.04,NNW,338,0.0,16.0,85,0.00,,,0.04,0272,Weather View 32 v70,2013-07-01 16:43:00,
2013-07-01 13:00:00,72.2,67.1,30.04,WSW,248,0.0,16.0,84,0.00,,,0.04,0272,Weather View 32 v70,2013-07-01 17:00:00,
2013-07-01 13:11:00,72.2,67.1,30.03,ESE,113,0.0,16.0,84,0.00,,,0.04,0320,Weather View 32 v70,2013-07-01 17:11:00,
2013-07-01 13:20:00,72.6,67.5,30.03,NW,315,0.0,16.0,84,0.00,,,0.04,0272,Weather View 32 v70,2013-07-01 17:20:00,
2013-07-01 13:25:00,72.5,67.4,30.04,East,90,0.0,16.0,84,0.00,,,0.04,0128,Weather View 32 v70,2013-07-01 17:25:00,
2013-07-01 13:30:00,72.4,67.3,30.04,NW,315,0.0,5.0,84,0.00,,,0.04,0136,Weather View 32 v70,2013-07-01 17:30:00,
2013-07-01 13:40:00,72.4,67.3,30.03,NNW,338,0.0,5.0,84,0.00,,,0.04,0144,Weather View 32 v70,2013-07-01 17:40:00,
2013-07-01 13:50:00,72.2,67.1,30.03,WNW,293,0.0,5.0,84,0.00,,,0.04,0184,Weather View 32 v70,2013-07-01 17:50:00,
2013-07-01 13:57:00,72.2,67.1,30.03,West,270,0.0,5.0,84,0.00,,,0.04,0240,Weather View 32 v70,2013-07-01 17:57:00,
2013-07-01 14:05:00,72.3,67.2,30.03,NNW,338,0.0,5.0,84,0.00,,,0.04,0288,Weather View 32 v70,2013-07-01 18:05:00,
2013-07-01 14:12:00,72.4,67.3,30.03,NNW,338,0.0,9.0,84,0.00,,,0.04,0264,Weather View 32 v70,2013-07-01 18:12:00,
2013-07-01 14:20:00,72.4,67.3,30.04,North,0,0.0,9.0,84,0.00,,,0.04,0184,Weather View 32 v70,2013-07-01 18:20:00,
2013-07-01 14:25:00,72.4,67.3,30.04,SSW,203,2.0,9.0,84,0.00,,,0.04,0200,Weather View 32 v70,2013-07-01 18:25:00,
2013-07-01 14:30:00,72.5,67.4,30.03,North,0,0.0,14.0,84,0.00,,,0.04,0168,Weather View 32 v70,2013-07-01 18:30:00,
2013-07-01 14:40:00,72.6,67.2,30.04,WSW,248,2.0,14.0,83,0.00,,,0.04,0208,Weather View 32 v70,2013-07-01 18:40:00,
2013-07-01 14:45:00,72.6,67.2,30.03,West,270,0.0,14.0,83,0.00,,,0.04,0144,Weather View 32 v70,2013-07-01 18:45:00,
2013-07-01 14:50:00,72.5,67.0,30.03,North,0,0.0,14.0,83,0.00,,,0.04,0224,Weather View 32 v70,2013-07-01 18:50:00,
2013-07-01 15:01:00,72.8,67.3,30.04,NW,315,0.0,14.0,83,0.00,,,0.04,0296,Weather View 32 v70,2013-07-01 19:01:00,
2013-07-01 15:10:00,72.9,67.4,30.03,WNW,293,0.0,14.0,83,0.00,,,0.04,0232,Weather View 32 v70,2013-07-01 19:10:00,
2013-07-01 15:17:00,72.9,67.4,30.04,ENE,68,0.0,14.0,83,0.00,,,0.04,0216,Weather View 32 v70,2013-07-01 19:17:00,
2013-07-01 15:28:00,72.9,67.0,30.03,East,90,0.0,14.0,82,0.00,,,0.04,0392,Weather View 32 v70,2013-07-01 19:28:00,
2013-07-01 15:35:00,72.5,67.0,30.03,WNW,293,0.0,11.0,83,0.00,,,0.04,0208,Weather View 32 v70,2013-07-01 19:35:00,
2013-07-01 15:45:00,72.9,67.4,30.04,NW,315,0.0,11.0,83,0.00,,,0.04,0280,Weather View 32 v70,2013-07-01 19:45:00,
2013-07-01 15:50:00,73.1,67.2,30.04,NNW,338,0.0,9.0,82,0.00,,,0.04,0352,Weather View 32 v70,2013-07-01 19:50:00,
2013-07-01 16:00:00,73.8,67.9,30.03,NW,315,0.0,9.0,82,0.00,,,0.04,0208,Weather View 32 v70,2013-07-01 20:00:00,
2013-07-01 16:10:00,73.7,67.4,30.04,SSW,203,0.0,9.0,81,0.00,,,0.04,0088,Weather View 32 v70,2013-07-01 20:10:00,
2013-07-01 16:18:00,73.1,66.9,30.03,WNW,293,0.0,9.0,81,0.00,,,0.04,0120,Weather View 32 v70,2013-07-01 20:18:00,
2013-07-01 16:25:00,72.6,66.8,30.03,WSW,248,1.0,13.0,82,0.00,,,0.04,0112,Weather View 32 v70,2013-07-01 20:25:00,
2013-07-01 16:32:00,72.4,66.6,30.04,West,270,0.0,13.0,82,0.00,,,0.04,0144,Weather View 32 v70,2013-07-01 20:32:00,
2013-07-01 16:40:00,72.3,66.8,30.04,WSW,248,0.0,13.0,83,0.00,,,0.04,0056,Weather View 32 v70,2013-07-01 20:40:00,
2013-07-01 16:45:00,72.3,66.8,30.04,South,180,4.0,13.0,83,0.00,,,0.04,0040,Weather View 32 v70,2013-07-01 20:45:00,
2013-07-01 16:50:00,72.3,66.8,30.04,NW,315,0.0,13.0,83,0.00,,,0.04,0080,Weather View 32 v70,2013-07-01 20:50:00,
2013-07-01 17:01:00,72.5,67.0,30.05,WNW,293,0.0,13.0,83,0.00,,,0.04,0104,Weather View 32 v70,2013-07-01 21:01:00,
2013-07-01 17:10:00,72.4,66.6,30.05,NNW,338,0.0,13.0,82,0.00,,,0.04,0160,Weather View 32 v70,2013-07-01 21:10:00,
2013-07-01 17:16:00,72.4,66.6,30.04,NW,315,0.0,13.0,82,0.00,,,0.04,0088,Weather View 32 v70,2013-07-01 21:16:00,
2013-07-01 17:25:00,72.2,66.0,30.05,WNW,293,0.0,11.0,81,0.00,,,0.04,0080,Weather View 32 v70,2013-07-01 21:25:00,
2013-07-01 17:34:00,72.1,65.9,30.05,NW,315,0.0,11.0,81,0.00,,,0.04,0048,Weather View 32 v70,2013-07-01 21:34:00,
2013-07-01 17:41:00,72.2,66.0,30.04,NNW,338,0.0,6.0,81,0.00,,,0.04,0088,Weather View 32 v70,2013-07-01 21:41:00,
2013-07-01 17:47:00,72.1,65.9,30.04,NNW,338,0.0,6.0,81,0.00,,,0.04,0072,Weather View 32 v70,2013-07-01 21:47:00,
2013-07-01 17:55:00,72.0,65.8,30.05,NNE,23,0.0,6.0,81,0.00,,,0.04,0112,Weather View 32 v70,2013-07-01 21:55:00,
2013-07-01 18:00:00,71.9,65.7,30.04,NW,315,0.0,6.0,81,0.00,,,0.04,0088,Weather View 32 v70,2013-07-01 22:00:00,
2013-07-01 18:05:00,71.6,65.5,30.04,NE,45,0.0,6.0,81,0.00,,,0.04,0064,Weather View 32 v70,2013-07-01 22:05:00,
2013-07-01 18:10:00,71.5,65.4,30.04,NW,315,0.0,4.0,81,0.00,,,0.04,0064,Weather View 32 v70,2013-07-01 22:10:00,
2013-07-01 18:15:00,71.4,65.2,30.04,NNW,338,0.0,4.0,81,0.00,,,0.04,0040,Weather View 32 v70,2013-07-01 22:15:00,
2013-07-01 18:25:00,71.3,65.5,30.05,NNW,338,0.0,3.0,82,0.00,,,0.04,0048,Weather View 32 v70,2013-07-01 22:25:00,
2013-07-01 18:30:00,71.3,65.8,30.04,NNE,23,0.0,3.0,83,0.00,,,0.04,0080,Weather View 32 v70,2013-07-01 22:30:00,
2013-07-01 18:40:00,71.3,65.8,30.05,NW,315,0.0,3.0,83,0.00,,,0.04,0048,Weather View 32 v70,2013-07-01 22:40:00,
2013-07-01 18:45:00,71.1,65.6,30.05,NNE,23,0.0,3.0,83,0.00,,,0.04,0032,Weather View 32 v70,2013-07-01 22:45:00,
2013-07-01 18:50:00,71.1,65.6,30.05,WNW,293,0.0,3.0,83,0.00,,,0.04,0064,Weather View 32 v70,2013-07-01 22:50:00,
2013-07-01 18:55:00,71.0,65.5,30.05,ENE,68,0.0,3.0,83,0.00,,,0.04,0064,Weather View 32 v70,2013-07-01 22:55:00,
2013-07-01 19:00:00,70.7,65.3,30.05,SSE,158,3.0,8.0,83,0.00,,,0.04,0048,Weather View 32 v70,2013-07-01 23:00:00,
2013-07-01 19:05:00,70.7,65.3,30.06,NW,315,0.0,8.0,83,0.00,,,0.04,0016,Weather View 32 v70,2013-07-01 23:05:00,
2013-07-01 19:15:00,70.6,65.5,30.05,NE,45,0.0,8.0,84,0.00,,,0.04,0056,Weather View 32 v70,2013-07-01 23:15:00,
2013-07-01 19:20:00,70.6,65.5,30.06,NNW,338,0.0,8.0,84,0.00,,,0.04,0024,Weather View 32 v70,2013-07-01 23:20:00,
2013-07-01 19:30:00,70.5,65.4,30.06,NNE,23,0.0,8.0,84,0.00,,,0.04,0000,Weather View 32 v70,2013-07-01 23:30:00,
2013-07-01 19:40:00,70.3,65.5,30.06,NE,45,1.0,8.0,85,0.00,,,0.04,0032,Weather View 32 v70,2013-07-01 23:40:00,
2013-07-01 19:45:00,70.3,65.2,30.07,NNW,338,0.0,8.0,84,0.00,,,0.04,0000,Weather View 32 v70,2013-07-01 23:45:00,
2013-07-01 19:55:00,70.3,65.5,30.07,SW,225,0.0,8.0,85,0.00,,,0.04,0000,Weather View 32 v70,2013-07-01 23:55:00,
2013-07-01 20:00:00,70.3,65.5,30.07,West,270,0.0,8.0,85,0.00,,,0.04,0000,Weather View 32 v70,2013-07-02 00:00:00,
2013-07-01 20:10:00,70.2,65.4,30.07,NW,315,0.0,8.0,85,0.00,,,0.04,0000,Weather View 32 v70,2013-07-02 00:10:00,
2013-07-01 20:20:00,70.1,65.3,30.08,WNW,293,1.0,8.0,85,0.00,,,0.04,0008,Weather View 32 v70,2013-07-02 00:20:00,
2013-07-01 20:30:00,70.1,65.3,30.08,South,180,0.0,8.0,85,0.00,,,0.04,0008,Weather View 32 v70,2013-07-02 00:30:00,
2013-07-01 20:40:00,70.1,65.3,30.09,WNW,293,0.0,8.0,85,0.00,,,0.04,0000,Weather View 32 v70,2013-07-02 00:40:00,
2013-07-01 20:45:00,70.1,65.3,30.09,WNW,293,0.0,8.0,85,0.00,,,0.04,0000,Weather View 32 v70,2013-07-02 00:45:00,
2013-07-01 20:55:00,70.4,65.6,30.10,WNW,293,0.0,8.0,85,0.00,,,0.04,0000,Weather View 32 v70,2013-07-02 00:55:00,
2013-07-01 21:00:00,70.5,65.8,30.09,SW,225,0.0,8.0,85,0.00,,,0.04,0008,Weather View 32 v70,2013-07-02 01:00:00,
2013-07-01 21:05:00,70.4,65.6,30.09,SW,225,0.0,8.0,85,0.00,,,0.04,0000,Weather View 32 v70,2013-07-02 01:05:00,
2013-07-01 21:15:00,70.5,65.8,30.08,WNW,293,0.0,8.0,85,0.00,,,0.04,0000,Weather View 32 v70,2013-07-02 01:15:00,
2013-07-01 21:21:00,70.4,65.6,30.09,WNW,293,0.0,8.0,85,0.00,,,0.04,0000,Weather View 32 v70,2013-07-02 01:21:00,
2013-07-01 21:30:00,70.4,65.6,30.10,WSW,248,3.0,7.0,85,0.00,,,0.04,0008,Weather View 32 v70,2013-07-02 01:30:00,
2013-07-01 21:35:00,70.4,65.6,30.11,NW,315,0.0,7.0,85,0.00,,,0.04,0008,Weather View 32 v70,2013-07-02 01:35:00,
2013-07-01 21:40:00,70.3,65.5,30.11,West,270,0.0,7.0,85,0.00,,,0.04,0000,Weather View 32 v70,2013-07-02 01:40:00,
2013-07-01 21:45:00,70.3,65.2,30.11,NW,315,0.0,7.0,84,0.00,,,0.04,0000,Weather View 32 v70,2013-07-02 01:45:00,
2013-07-01 21:50:00,70.3,65.2,30.11,WNW,293,0.0,7.0,84,0.00,,,0.04,0000,Weather View 32 v70,2013-07-02 01:50:00,
2013-07-01 21:55:00,70.1,65.0,30.11,SW,225,0.0,7.0,84,0.00,,,0.04,0000,Weather View 32 v70,2013-07-02 01:55:00,
2013-07-01 22:00:00,70.1,65.0,30.11,NNW,338,0.0,7.0,84,0.00,,,0.04,0000,Weather View 32 v70,2013-07-02 02:00:00,
2013-07-01 22:10:00,69.8,64.7,30.11,WNW,293,0.0,7.0,84,0.00,,,0.04,0000,Weather View 32 v70,2013-07-02 02:10:00,
2013-07-01 22:15:00,69.9,64.9,30.11,WNW,293,0.0,5.0,84,0.00,,,0.04,0000,Weather View 32 v70,2013-07-02 02:15:00,
2013-07-01 22:20:00,69.8,65.1,30.11,NW,315,0.0,5.0,85,0.00,,,0.04,0000,Weather View 32 v70,2013-07-02 02:20:00,
2013-07-01 22:25:00,69.8,64.7,30.11,NNW,338,0.0,5.0,84,0.00,,,0.04,0000,Weather View 32 v70,2013-07-02 02:25:00,
2013-07-01 22:30:00,69.7,64.7,30.11,NW,315,0.0,5.0,84,0.00,,,0.04,0008,Weather View 32 v70,2013-07-02 02:30:00,
2013-07-01 22:40:00,69.7,65.0,30.10,WNW,293,0.0,5.0,85,0.00,,,0.04,0008,Weather View 32 v70,2013-07-02 02:40:00,
2013-07-01 22:45:00,69.7,65.0,30.10,WNW,293,0.0,5.0,85,0.00,,,0.04,0000,Weather View 32 v70,2013-07-02 02:45:00,
2013-07-01 22:55:00,69.7,65.0,30.10,WNW,293,0.0,5.0,85,0.00,,,0.04,0000,Weather View 32 v70,2013-07-02 02:55:00,
2013-07-01 23:05:00,69.6,64.9,30.11,WNW,293,0.0,6.0,85,0.00,,,0.04,0000,Weather View 32 v70,2013-07-02 03:05:00,
2013-07-01 23:15:00,69.6,64.9,30.11,NW,315,0.0,6.0,85,0.00,,,0.04,0008,Weather View 32 v70,2013-07-02 03:15:00,
2013-07-01 23:22:00,69.5,64.8,30.11,NNW,338,0.0,6.0,85,0.00,,,0.04,0000,Weather View 32 v70,2013-07-02 03:22:00,
2013-07-01 23:30:00,69.4,64.6,30.11,SW,225,0.0,6.0,85,0.00,,,0.04,0000,Weather View 32 v70,2013-07-02 03:30:00,
2013-07-01 23:35:00,69.4,64.6,30.11,NW,315,0.0,6.0,85,0.00,,,0.04,0000,Weather View 32 v70,2013-07-02 03:35:00,
2013-07-01 23:45:00,69.4,64.6,30.11,West,270,0.0,7.0,85,0.00,,,0.04,0000,Weather View 32 v70,2013-07-02 03:45:00,
2013-07-01 23:55:00,69.3,64.6,30.11,WSW,248,0.0,7.0,85,0.00,,,0.04,0008,Weather View 32 v70,2013-07-02 03:55:00,